This is the latest recevied weather packets stored in our database for station/object 4S6DRJ-13. If no packets are shown the sender has not sent any weather packets the latest 10 day(s).
| Time | Temp. | Humidity | Pressure | Rain* | Wind** | Luminosity | Snow |
|---|---|---|---|---|---|---|---|
| 1787767948 | 25.56° C | 94% | 1011.3 hPa | 0 mm | 0 m/s | 0 W/m² | - |
| 1787767887 | 25.56° C | 94% | 1011.3 hPa | 0 mm | 0 m/s | 0 W/m² | - |
| 1787767826 | 25.56° C | 94% | 1011.4 hPa | 0 mm | 0.45 m/s, 135° | 0 W/m² | - |
| 1787767765 | 25.56° C | 94% | 1011.3 hPa | 0 mm | 0.45 m/s, 126° | 0 W/m² | - |
| 1787767704 | 25.56° C | 94% | 1011.3 hPa | 0 mm | 0 m/s | 0 W/m² | - |
| 1787767643 | 25.56° C | 94% | 1011.1 hPa | 0 mm | 0.45 m/s, 123° | 0 W/m² | - |
| 1787767582 | 25.56° C | 94% | 1011.4 hPa | 0 mm | 0.45 m/s, 139° | 0 W/m² | - |
| 1787767522 | 25.56° C | 94% | 1011.4 hPa | 0 mm | 0.45 m/s, 129° | 0 W/m² | - |
| 1787767460 | 25.56° C | 94% | 1011.4 hPa | 0 mm | 0.45 m/s, 132° | 0 W/m² | - |
| 1787767399 | 25.56° C | 94% | 1011.4 hPa | 0 mm | 0.45 m/s, 161° | 0 W/m² | - |
| 1787767338 | 25.56° C | 94% | 1011.4 hPa | 0 mm | 0 m/s | 0 W/m² | - |
| 1787767277 | 25.56° C | 94% | 1011.5 hPa | 0 mm | 0.45 m/s, 124° | 0 W/m² | - |
| 1787767216 | 25.56° C | 94% | 1011.5 hPa | 0 mm | 0 m/s | 0 W/m² | - |
| 1787767155 | 25.56° C | 94% | 1011.5 hPa | 0 mm | 0.45 m/s, 141° | 0 W/m² | - |
| 1787767095 | 25.56° C | 94% | 1011.5 hPa | 0 mm | 0.45 m/s, 141° | 0 W/m² | - |
| 1787767033 | 25.56° C | 94% | 1011.4 hPa | 0 mm | 0.89 m/s, 156° | 0 W/m² | - |
| 1787766972 | 25.56° C | 94% | 1011.5 hPa | 0 mm | 0.89 m/s, 132° | 0 W/m² | - |
| 1787766911 | 25.56° C | 94% | 1011.6 hPa | 0 mm | 0.45 m/s, 137° | 0 W/m² | - |
| 1787766850 | 25.56° C | 94% | 1011.6 hPa | 0 mm | 0.89 m/s, 175° | 0 W/m² | - |
| 1787766789 | 25.56° C | 94% | 1011.7 hPa | 0 mm | 0.45 m/s, 149° | 0 W/m² | - |
| 1787766728 | 25.56° C | 94% | 1011.5 hPa | 0 mm | 0 m/s | 0 W/m² | - |
| 1787766667 | 25.56° C | 94% | 1011.7 hPa | 0 mm | 0.45 m/s, 119° | 0 W/m² | - |
| 1787766607 | 25.56° C | 94% | 1011.6 hPa | 0 mm | 0.45 m/s, 105° | 0 W/m² | - |
| 1787766545 | 25.56° C | 94% | 1011.8 hPa | 0 mm | 0.45 m/s, 109° | 0 W/m² | - |
| 1787766484 | 25.56° C | 94% | 1011.7 hPa | 0 mm | 0.89 m/s, 129° | 0 W/m² | - |
* Rain latest hour (hover to see other rain measurements)
** Current wind speed in m/s (hover to see current wind gust speed)